Indianapolis, IN

6:24 AM EST on December 13, 2019 (GMT -0500)
Indianapolis International

Weather History for KIND - November, 2019

Change the Weather History Date:

Saturday, November 16, 2019

  Actual Average Record
Temperature  
Mean Temperature 36 °F 44 °F  
Max Temperature 44 °F 52 °F 74 °F (1952)
Min Temperature 28 °F 35 °F 10 °F (1883)
Degree Days  
Heating Degree Days 29 21  
Month to date heating degree days 467 291  
Since 1 July heating degree days 762 692  
Cooling Degree Days 0 0  
Month to date cooling degree days 0 0  
Year to date cooling degree days 1344 1065  
Moisture  
Dew Point 26 °F    
Average Humidity 70    
Maximum Humidity 85    
Minimum Humidity 49    
Precipitation  
Precipitation 0.00 in 0.13 in 1.68 in (1961)
Month to date precipitation 0.33 1.92  
Year to date precipitation 41.83 37.49  
Snow  
Snow 0.00 in 0.00 in 8.60 in (1932)
Month to date snowfall 2.8 0.2  
Since 1 July snowfall 2.8 0.6  
Since 1 September snowfall 2.8 0.6  
Snow Depth 0.00 in    
Sea Level Pressure  
Sea Level Pressure 30.33 in    
Wind  
Wind Speed 9 mph ()    
Max Wind Speed 18 mph    
Max Gust Speed 23 mph    
Visibility 8.6 miles    
Events      
T = Trace of Precipitation, MM = Missing Value Source: Averaged Metar Reports

Daily Weather History Graph

Daily Weather History Graph

Search for Another Location

Airport or City:

Astronomy

Nov. 16, 2019 Rise Set
Actual Time 7:30 AM EST 5:28 PM EST
Civil Twilight 7:01 AM EST 5:57 PM EST
Nautical Twilight 6:28 AM EST 6:30 PM EST
Astronomical Twilight 5:57 AM EST 7:02 PM EST
Moon 9:01 PM EST (11/16) 11:23 AM EST (11/16)
Length of Visible Light 10h 56m
Length of Day
9h 58m
Waning Gibbous, 82% of the Moon is Illuminated
Nov 16
Waning Gibbous
Nov 19
Last Quarter
Nov 26
New
Dec 4
First Quarter
Dec 12
Full

Hourly Weather History & Observations

Time (EST) Temp. Windchill Dew Point Humidity Pressure Visibility Wind Dir Wind Speed Gust Speed Precip Events Conditions
12:54 AM 34.0 °F 26.0 °F 27.0 °F 75% 30.40 in 8.0 mi NE 10.4 mph - N/A   Mostly Cloudy
1:54 AM 34.0 °F 25.0 °F 26.1 °F 73% 30.38 in 8.0 mi NE 12.7 mph - N/A   Overcast
2:54 AM 32.0 °F 24.8 °F 26.1 °F 79% 30.37 in 7.0 mi ENE 8.1 mph - N/A   Scattered Clouds
3:54 AM 30.0 °F 24.1 °F 25.0 °F 82% 30.36 in 7.0 mi NE 5.8 mph - N/A   Partly Cloudy
4:54 AM 28.9 °F 21.9 °F 25.0 °F 85% 30.36 in 6.0 mi NE 6.9 mph - N/A   Clear
5:33 AM 30.9 °F 22.2 °F 26.1 °F 82% 30.35 in 7.0 mi East 10.4 mph - N/A   Mostly Cloudy
5:54 AM 30.9 °F 21.7 °F 26.1 °F 82% 30.38 in 7.0 mi East 11.5 mph - N/A   Overcast
6:54 AM 30.9 °F 21.2 °F 25.0 °F 79% 30.39 in 7.0 mi East 12.7 mph 20.7 mph N/A   Overcast
7:12 AM 30.9 °F 23.5 °F 25.0 °F 79% 30.37 in 7.0 mi East 8.1 mph - N/A   Scattered Clouds
7:54 AM 30.9 °F 23.5 °F 25.0 °F 79% 30.40 in 5.0 mi ENE 8.1 mph - N/A   Scattered Clouds
8:54 AM 33.1 °F 25.5 °F 26.1 °F 75% 30.41 in 7.0 mi ENE 9.2 mph - N/A   Scattered Clouds
9:54 AM 36.0 °F 28.0 °F 27.0 °F 70% 30.41 in 7.0 mi ENE 11.5 mph - N/A   Scattered Clouds
10:54 AM 39.0 °F 31.0 °F 26.1 °F 60% 30.40 in 10.0 mi East 13.8 mph - N/A   Scattered Clouds
11:54 AM 41.0 °F 33.5 °F 27.0 °F 57% 30.37 in 10.0 mi East 13.8 mph - N/A   Scattered Clouds
12:54 PM 43.0 °F 35.7 °F 28.0 °F 56% 30.33 in 10.0 mi East 15.0 mph - N/A   Partly Cloudy
1:54 PM 44.1 °F 38.6 °F 27.0 °F 51% 30.30 in 10.0 mi East 10.4 mph 18.4 mph N/A   Partly Cloudy
2:54 PM 44.1 °F 37.7 °F 28.0 °F 53% 30.28 in 10.0 mi ENE 12.7 mph - N/A   Partly Cloudy
3:54 PM 43.0 °F 37.7 °F 27.0 °F 53% 30.28 in 10.0 mi East 9.2 mph - N/A   Partly Cloudy
4:54 PM 41.0 °F 34.7 °F 26.1 °F 55% 30.28 in 10.0 mi ENE 10.4 mph - N/A   Mostly Cloudy
5:54 PM 39.0 °F 32.8 °F 26.1 °F 60% 30.27 in 10.0 mi ENE 9.2 mph - N/A   Mostly Cloudy
6:54 PM 37.9 °F 32.1 °F 27.0 °F 65% 30.27 in 10.0 mi ENE 8.1 mph - N/A   Mostly Cloudy
7:54 PM 37.0 °F 31.0 °F 27.0 °F 67% 30.26 in 10.0 mi ENE 8.1 mph - N/A   Mostly Cloudy
8:54 PM 35.1 °F 26.4 °F 27.0 °F 72% 30.25 in 10.0 mi ENE 12.7 mph - N/A   Scattered Clouds
9:54 PM 34.0 °F 26.6 °F 27.0 °F 75% 30.25 in 10.0 mi ENE 9.2 mph - N/A   Scattered Clouds
10:54 PM 33.1 °F 25.5 °F 27.0 °F 78% 30.23 in 10.0 mi ENE 9.2 mph - N/A   Clear
11:54 PM 30.9 °F 24.3 °F 26.1 °F 82% 30.20 in 10.0 mi ENE 6.9 mph - N/A   Clear